Home   Weather   Cadiz   Past weeks

Flag for Spain Past Weather in Cadiz, Cádiz, Spain — Yesterday and Last 2 Weeks

Now
46 °F

Clear.


Feels Like: 44 °F
Forecast: 40 / 56 °F
Wind: 5 mph from North

Location: Rota Airport

Current Time: Jan 23, 2017 at 1:56:45 am

Latest Report: Jan 23, 2017 at 1:00 am


Visibility: 10 mi

Pressure: 30.09 "Hg

Humidity: 82%

Dew Point: 41 °F

Location of CadizLocation

Past Weather in Cadiz — Graph

°F

Cadiz Temperature Yesterday

Maximum temperature yesterday: 57 °F (at 5:00 pm)
Minimum temperature yesterday: 36 °F (at 9:00 am)
Average temperature yesterday: 48 °F

High & Low Weather Summary for the Past Weeks

 TemperatureHumidityPressure
High64 °F (Jan 11, 4:00 pm)100% (Jan 9, 3:00 am)30.39 "Hg (Jan 9, 3:00 am)
Low30 °F (Jan 19, 6:00 am)23% (Jan 18, 5:00 pm)29.95 "Hg (Jan 19, 5:00 pm)
Average48 °F71%30.18 "Hg
* Reported Jan 8 1:00 am — Jan 23 1:00 am, Cadiz, Weather by CustomWeather, © 2017

Note: Actual official high and low records may vary slightly from our data, if they occured in-between our weather recording intervals... More about our weather records

Advertising

Cadiz Weather History for the Previous 24 Hours

Scroll right to see more
 ConditionsComfort  
Time TempWeatherWind HumidityBarometerVisibility
1:00 am
Mon, Jan 23
46 °FClear.5 mph82%30.09 "Hg10 mi
12:00 am48 °FClear.3 mph82%30.09 "Hg10 mi
11:00 pm
Sun, Jan 22
50 °FClear.7 mph76%30.09 "Hg10 mi
10:00 pm52 °FClear.5 mph72%30.09 "Hg10 mi
9:00 pm54 °FClear.7 mph63%30.09 "Hg10 mi
8:00 pm52 °FClear.7 mph72%30.07 "Hg10 mi
7:00 pm54 °FClear.7 mph67%30.07 "Hg10 mi
6:00 pm55 °FSunny.12 mph63%30.07 "Hg10 mi
5:00 pm57 °FPassing clouds.14 mph59%30.07 "HgN/A
4:00 pm55 °FPassing clouds.12 mph67%30.07 "HgN/A
3:00 pm55 °FPassing clouds.10 mph72%30.07 "HgN/A
2:00 pm54 °FPassing clouds.8 mph72%30.09 "HgN/A
1:00 pm54 °FPassing clouds.8 mph72%30.12 "HgN/A
12:00 pm52 °FPassing clouds.7 mph72%30.15 "HgN/A
11:00 am50 °FPassing clouds.7 mph82%30.15 "HgN/A
10:00 am45 °FSunny.2 mph81%30.12 "Hg10 mi
9:00 am36 °FSunny.2 mph87%30.12 "Hg10 mi
8:00 am37 °FClear.1 mph87%30.09 "Hg10 mi
7:00 am39 °FClear.3 mph87%30.09 "Hg10 mi
6:00 am41 °FClear.3 mph81%30.07 "Hg10 mi
5:00 am41 °FClear.7 mph81%30.09 "Hg10 mi
4:00 am39 °FClear.6 mph87%30.09 "Hg10 mi
3:00 am41 °FPassing clouds.3 mph81%30.09 "HgN/A
2:00 am45 °FClear.6 mph76%30.09 "Hg10 mi
1:00 am46 °FPassing clouds.6 mph82%30.09 "HgN/A
Weather by CustomWeather, © 2017

See weather overviewHow to use our weather pages